date,time,SUV Intensity [MED/Hr],UV Index,Daily total [MED],Since Last [MED]
01/06/2023,00:02:26,0.001,0.0,0.0,0.0
01/06/2023,00:03:26,0.000,0.0,0.0,0.0
01/06/2023,00:04:26,0.000,0.0,0.0,0.0
01/06/2023,00:05:26,0.000,0.0,0.0,0.0
01/06/2023,00:06:26,0.000,0.0,0.0,0.0
01/06/2023,00:07:26,0.001,0.0,0.0,0.0
01/06/2023,00:08:26,0.000,0.0,0.0,0.0
01/06/2023,00:09:27,0.001,0.0,0.0,0.0
01/06/2023,00:10:26,0.000,0.0,0.0,0.0
01/06/2023,00:11:27,0.000,0.0,0.0,0.0
01/06/2023,00:12:26,-0.001,0.0,0.0,0.0
01/06/2023,00:13:26,0.001,0.0,0.0,0.0
01/06/2023,00:14:27,-0.001,0.0,0.0,0.0
01/06/2023,00:15:26,0.000,0.0,0.0,0.0
01/06/2023,00:16:26,0.000,0.0,0.0,0.0
01/06/2023,00:17:26,0.000,0.0,0.0,0.0
01/06/2023,00:18:27,0.001,0.0,0.0,0.0
01/06/2023,00:19:27,-0.000,0.0,0.0,0.0
01/06/2023,00:20:27,0.000,0.0,0.0,0.0
01/06/2023,00:21:26,0.000,0.0,0.0,0.0
01/06/2023,00:22:26,0.000,0.0,0.0,0.0
01/06/2023,00:23:26,0.001,0.0,0.0,0.0
01/06/2023,00:24:27,-0.000,0.0,0.0,0.0
01/06/2023,00:25:26,-0.000,0.0,0.0,0.0
01/06/2023,00:26:27,0.000,0.0,0.0,0.0
01/06/2023,00:27:26,0.000,0.0,0.0,0.0
01/06/2023,00:28:26,-0.000,0.0,0.0,0.0
01/06/2023,00:29:26,0.001,0.0,0.0,0.0
01/06/2023,00:30:26,-0.001,0.0,0.0,0.0
01/06/2023,00:31:26,0.001,0.0,0.0,0.0
01/06/2023,00:32:27,0.001,0.0,0.0,0.0
01/06/2023,00:33:26,0.001,0.0,0.0,0.0
01/06/2023,00:34:26,0.000,0.0,0.0,0.0
01/06/2023,00:35:26,-0.000,0.0,0.0,0.0
01/06/2023,00:36:26,-0.001,0.0,0.0,0.0
01/06/2023,00:37:28,-0.001,0.0,0.0,0.0
01/06/2023,00:38:27,0.000,0.0,0.0,0.0
01/06/2023,00:39:26,0.001,0.0,0.0,0.0
01/06/2023,00:40:26,0.001,0.0,0.0,0.0
01/06/2023,00:41:26,-0.000,0.0,0.0,0.0
01/06/2023,00:42:26,0.000,0.0,0.0,0.0
01/06/2023,00:43:27,0.001,0.0,0.0,0.0
01/06/2023,00:44:26,-0.000,0.0,0.0,0.0
01/06/2023,00:45:26,0.001,0.0,0.0,0.0
01/06/2023,00:46:27,0.001,0.0,0.0,0.0
01/06/2023,00:47:27,0.001,0.0,0.0,0.0
01/06/2023,00:48:26,0.000,0.0,0.0,0.0
01/06/2023,00:49:26,0.000,0.0,0.0,0.0
01/06/2023,00:50:26,0.000,0.0,0.0,0.0
01/06/2023,00:51:26,0.000,0.0,0.0,0.0
01/06/2023,00:52:27,0.000,0.0,0.0,0.0
01/06/2023,00:53:26,0.000,0.0,0.0,0.0
01/06/2023,00:54:26,0.001,0.0,0.0,0.0
01/06/2023,00:55:27,0.000,0.0,0.0,0.0
01/06/2023,00:56:27,0.000,0.0,0.0,0.0
01/06/2023,00:57:26,0.000,0.0,0.0,0.0
01/06/2023,00:58:27,0.000,0.0,0.0,0.0
01/06/2023,00:59:26,0.000,0.0,0.0,0.0
01/06/2023,01:00:26,0.001,0.0,0.0,0.0
01/06/2023,01:01:27,0.000,0.0,0.0,0.0
01/06/2023,01:02:26,-0.001,0.0,0.0,0.0
01/06/2023,01:03:27,0.001,0.0,0.0,0.0
01/06/2023,01:04:26,0.000,0.0,0.0,0.0
01/06/2023,01:05:27,0.001,0.0,0.0,0.0
01/06/2023,01:06:27,0.000,0.0,0.0,0.0
01/06/2023,01:07:26,0.001,0.0,0.0,0.0
01/06/2023,01:08:26,0.000,0.0,0.0,0.0
01/06/2023,01:09:26,0.000,0.0,0.0,0.0
01/06/2023,01:10:26,-0.000,0.0,0.0,0.0
01/06/2023,01:11:27,0.000,0.0,0.0,0.0
01/06/2023,01:12:27,0.000,0.0,0.0,0.0
01/06/2023,01:13:27,-0.001,0.0,0.0,0.0
01/06/2023,01:14:26,0.000,0.0,0.0,0.0
01/06/2023,01:15:26,0.000,0.0,0.0,0.0
01/06/2023,01:16:26,0.000,0.0,0.0,0.0
01/06/2023,01:17:26,0.000,0.0,0.0,0.0
01/06/2023,01:18:27,-0.001,0.0,0.0,0.0
01/06/2023,01:19:26,0.001,0.0,0.0,0.0
01/06/2023,01:20:27,0.000,0.0,0.0,0.0
01/06/2023,01:21:26,0.000,0.0,0.0,0.0
01/06/2023,01:22:27,0.000,0.0,0.0,0.0
01/06/2023,01:23:27,-0.000,0.0,0.0,0.0
01/06/2023,01:24:26,0.000,0.0,0.0,0.0
01/06/2023,01:25:26,0.000,0.0,0.0,0.0
01/06/2023,01:26:27,0.000,0.0,0.0,0.0
01/06/2023,01:27:26,-0.000,0.0,0.0,0.0
01/06/2023,01:28:26,-0.000,0.0,0.0,0.0
01/06/2023,01:29:27,0.000,0.0,0.0,0.0
01/06/2023,01:30:26,-0.000,0.0,0.0,0.0
01/06/2023,01:31:26,0.000,0.0,0.0,0.0
01/06/2023,01:32:27,0.000,0.0,0.0,0.0
01/06/2023,01:33:26,-0.001,0.0,0.0,0.0
01/06/2023,01:34:27,0.000,0.0,0.0,0.0
01/06/2023,01:35:27,0.001,0.0,0.0,0.0
01/06/2023,01:36:27,-0.000,0.0,0.0,0.0
01/06/2023,01:37:27,0.000,0.0,0.0,0.0
01/06/2023,01:38:26,-0.002,0.0,0.0,0.0
01/06/2023,01:39:26,0.000,0.0,0.0,0.0
01/06/2023,01:40:26,0.001,0.0,0.0,0.0
01/06/2023,01:41:27,0.000,0.0,0.0,0.0
01/06/2023,01:42:27,0.001,0.0,0.0,0.0
01/06/2023,01:43:27,-0.001,0.0,0.0,0.0
01/06/2023,01:44:26,0.001,0.0,0.0,0.0
01/06/2023,01:45:26,0.000,0.0,0.0,0.0
01/06/2023,01:46:26,0.000,0.0,0.0,0.0
01/06/2023,01:47:27,-0.000,0.0,0.0,0.0
01/06/2023,01:48:27,0.002,0.0,0.0,0.0
01/06/2023,01:49:26,0.001,0.0,0.0,0.0
01/06/2023,01:50:26,-0.001,0.0,0.0,0.0
01/06/2023,01:51:27,-0.000,0.0,0.0,0.0
01/06/2023,01:52:27,0.001,0.0,0.0,0.0
01/06/2023,01:53:26,0.000,0.0,0.0,0.0
01/06/2023,01:54:27,-0.001,0.0,0.0,0.0
01/06/2023,01:55:26,0.000,0.0,0.0,0.0
01/06/2023,01:56:27,0.001,0.0,0.0,0.0
01/06/2023,01:57:27,0.001,0.0,0.0,0.0
01/06/2023,01:58:26,0.001,0.0,0.0,0.0
01/06/2023,01:59:26,0.001,0.0,0.0,0.0
01/06/2023,02:00:27,0.002,0.0,0.0,0.0
01/06/2023,02:01:26,0.000,0.0,0.0,0.0
01/06/2023,02:02:27,0.000,0.0,0.0,0.0
01/06/2023,02:03:27,0.000,0.0,0.0,0.0
01/06/2023,02:04:26,0.001,0.0,0.0,0.0
01/06/2023,02:05:26,0.001,0.0,0.0,0.0
01/06/2023,02:06:27,-0.000,0.0,0.0,0.0
01/06/2023,02:07:27,0.000,0.0,0.0,0.0
01/06/2023,02:08:27,0.000,0.0,0.0,0.0
01/06/2023,02:09:27,0.000,0.0,0.0,0.0
01/06/2023,02:10:27,-0.001,0.0,0.0,0.0
01/06/2023,02:11:27,0.000,0.0,0.0,0.0
01/06/2023,02:12:26,0.001,0.0,0.0,0.0
01/06/2023,02:13:26,-0.000,0.0,0.0,0.0
01/06/2023,02:14:26,0.000,0.0,0.0,0.0
01/06/2023,02:15:27,-0.001,0.0,0.0,0.0
01/06/2023,02:16:27,0.000,0.0,0.0,0.0
01/06/2023,02:17:26,0.001,0.0,0.0,0.0
01/06/2023,02:18:26,0.000,0.0,0.0,0.0
01/06/2023,02:19:26,0.001,0.0,0.0,0.0
01/06/2023,02:20:27,-0.000,0.0,0.0,0.0
01/06/2023,02:21:26,-0.000,0.0,0.0,0.0
01/06/2023,02:22:27,-0.000,0.0,0.0,0.0
01/06/2023,02:23:27,0.000,0.0,0.0,0.0
01/06/2023,02:24:27,0.000,0.0,0.0,0.0
01/06/2023,02:25:27,-0.000,0.0,0.0,0.0
01/06/2023,02:26:26,0.001,0.0,0.0,0.0
01/06/2023,02:27:28,0.001,0.0,0.0,0.0
01/06/2023,02:28:27,0.000,0.0,0.0,0.0
01/06/2023,02:29:26,0.001,0.0,0.0,0.0
01/06/2023,02:30:26,0.001,0.0,0.0,0.0
01/06/2023,02:31:27,0.000,0.0,0.0,0.0
01/06/2023,02:32:27,0.001,0.0,0.0,0.0
01/06/2023,02:33:27,0.000,0.0,0.0,0.0
01/06/2023,02:34:27,0.000,0.0,0.0,0.0
01/06/2023,02:35:27,0.001,0.0,0.0,0.0
01/06/2023,02:36:27,0.001,0.0,0.0,0.0
01/06/2023,02:37:27,-0.000,0.0,0.0,0.0
01/06/2023,02:38:27,0.000,0.0,0.0,0.0
01/06/2023,02:39:26,0.001,0.0,0.0,0.0
01/06/2023,02:40:27,0.000,0.0,0.0,0.0
01/06/2023,02:41:26,0.001,0.0,0.0,0.0
01/06/2023,02:42:27,0.001,0.0,0.0,0.0
01/06/2023,02:43:26,0.001,0.0,0.0,0.0
01/06/2023,02:44:26,0.001,0.0,0.0,0.0
01/06/2023,02:45:27,0.000,0.0,0.0,0.0
01/06/2023,02:46:27,0.000,0.0,0.0,0.0
01/06/2023,02:47:27,0.001,0.0,0.0,0.0
01/06/2023,02:48:26,0.001,0.0,0.0,0.0
01/06/2023,02:49:26,0.000,0.0,0.0,0.0
01/06/2023,02:50:27,0.001,0.0,0.0,0.0
01/06/2023,02:51:26,0.000,0.0,0.0,0.0
01/06/2023,02:52:27,0.000,0.0,0.0,0.0
01/06/2023,02:53:26,0.001,0.0,0.0,0.0
01/06/2023,02:54:27,-0.000,0.0,0.0,0.0
01/06/2023,02:55:26,0.001,0.0,0.0,0.0
01/06/2023,02:56:26,0.000,0.0,0.0,0.0
01/06/2023,02:57:26,0.000,0.0,0.0,0.0
01/06/2023,02:58:27,0.001,0.0,0.0,0.0
01/06/2023,02:59:27,0.001,0.0,0.0,0.0
01/06/2023,03:00:26,-0.000,0.0,0.0,0.0
01/06/2023,03:01:26,0.000,0.0,0.0,0.0
01/06/2023,03:02:26,0.000,0.0,0.0,0.0
01/06/2023,03:03:27,0.000,0.0,0.0,0.0
01/06/2023,03:04:27,-0.000,0.0,0.0,0.0
01/06/2023,03:05:30,0.000,0.0,0.0,0.0
01/06/2023,03:06:27,0.001,0.0,0.0,0.0
01/06/2023,03:07:27,0.000,0.0,0.0,0.0
01/06/2023,03:08:27,0.000,0.0,0.0,0.0
01/06/2023,03:09:26,0.000,0.0,0.0,0.0
01/06/2023,03:10:26,0.000,0.0,0.0,0.0
01/06/2023,03:11:27,0.001,0.0,0.0,0.0
01/06/2023,03:12:27,0.000,0.0,0.0,0.0
01/06/2023,03:13:27,0.001,0.0,0.0,0.0
01/06/2023,03:14:27,0.001,0.0,0.0,0.0
01/06/2023,03:15:26,0.001,0.0,0.0,0.0
01/06/2023,03:16:27,0.001,0.0,0.0,0.0
01/06/2023,03:17:26,0.000,0.0,0.0,0.0
01/06/2023,03:18:27,0.000,0.0,0.0,0.0
01/06/2023,03:19:26,0.000,0.0,0.0,0.0
01/06/2023,03:20:27,0.000,0.0,0.0,0.0
01/06/2023,03:21:27,-0.000,0.0,0.0,0.0
01/06/2023,03:22:27,0.000,0.0,0.0,0.0
01/06/2023,03:23:27,0.000,0.0,0.0,0.0
01/06/2023,03:24:26,0.001,0.0,0.0,0.0
01/06/2023,03:25:26,0.000,0.0,0.0,0.0
01/06/2023,03:26:27,-0.001,0.0,0.0,0.0
01/06/2023,03:27:27,0.001,0.0,0.0,0.0
01/06/2023,03:28:26,0.001,0.0,0.0,0.0
01/06/2023,03:29:27,0.001,0.0,0.0,0.0
01/06/2023,03:30:27,0.001,0.0,0.0,0.0
01/06/2023,03:31:26,0.002,0.0,0.0,0.0
01/06/2023,03:32:27,0.001,0.0,0.0,0.0
01/06/2023,03:33:27,0.001,0.0,0.0,0.0
01/06/2023,03:34:27,0.001,0.0,0.0,0.0
01/06/2023,03:35:27,0.001,0.0,0.0,0.0
01/06/2023,03:36:27,-0.000,0.0,0.0,0.0
01/06/2023,03:37:27,-0.000,0.0,0.0,0.0
01/06/2023,03:38:26,-0.000,0.0,0.0,0.0
01/06/2023,03:39:27,0.001,0.0,0.0,0.0
01/06/2023,03:40:27,0.001,0.0,0.0,0.0
01/06/2023,03:41:27,0.001,0.0,0.0,0.0
01/06/2023,03:42:26,0.001,0.0,0.0,0.0
01/06/2023,03:43:27,0.001,0.0,0.0,0.0
01/06/2023,03:44:27,0.001,0.0,0.0,0.0
01/06/2023,03:45:27,0.001,0.0,0.0,0.0
01/06/2023,03:46:26,0.001,0.0,0.0,0.0
01/06/2023,03:47:27,0.002,0.0,0.0,0.0
01/06/2023,03:48:27,0.002,0.0,0.0,0.0
01/06/2023,03:49:27,0.001,0.0,0.0,0.0
01/06/2023,03:50:28,0.000,0.0,0.0,0.0
01/06/2023,03:51:27,0.002,0.0,0.0,0.0
01/06/2023,03:52:27,0.000,0.0,0.0,0.0
01/06/2023,03:53:27,0.001,0.0,0.0,0.0
01/06/2023,03:54:26,0.002,0.0,0.0,0.0
01/06/2023,03:55:26,0.001,0.0,0.0,0.0
01/06/2023,03:56:27,0.001,0.0,0.0,0.0
01/06/2023,03:57:27,0.001,0.0,0.0,0.0
01/06/2023,03:58:27,0.002,0.0,0.0,0.0
01/06/2023,03:59:27,0.002,0.0,0.0,0.0
01/06/2023,04:00:26,0.002,0.0,0.0,0.0
01/06/2023,04:01:27,0.002,0.0,0.0,0.0
01/06/2023,04:02:27,0.001,0.0,0.0,0.0
01/06/2023,04:03:27,0.002,0.0,0.0,0.0
01/06/2023,04:04:26,0.001,0.0,0.0,0.0
01/06/2023,04:05:27,0.002,0.0,0.0,0.0
01/06/2023,04:06:27,0.002,0.0,0.0,0.0
01/06/2023,04:07:26,0.002,0.0,0.0,0.0
01/06/2023,04:08:27,0.002,0.0,0.0,0.0
01/06/2023,04:09:26,0.002,0.0,0.0,0.0
01/06/2023,04:10:27,0.003,0.0,0.0,0.0
01/06/2023,04:11:26,0.003,0.0,0.0,0.0
01/06/2023,04:12:26,0.003,0.0,0.0,0.0
01/06/2023,04:13:27,0.003,0.0,0.0,0.0
01/06/2023,04:14:27,0.004,0.0,0.0,0.0
01/06/2023,04:15:27,0.003,0.0,0.0,0.0
01/06/2023,04:16:26,0.003,0.0,0.0,0.0
01/06/2023,04:17:27,0.004,0.0,0.0,0.0
01/06/2023,04:18:26,0.003,0.0,0.0,0.0
01/06/2023,04:19:27,0.004,0.0,0.0,0.0
01/06/2023,04:20:27,0.004,0.0,0.0,0.0
01/06/2023,04:21:27,0.004,0.0,0.0,0.0
01/06/2023,04:22:27,0.005,0.0,0.0,0.0
01/06/2023,04:23:26,0.003,0.0,0.0,0.0
01/06/2023,04:24:27,0.005,0.0,0.0,0.0
01/06/2023,04:25:27,0.004,0.0,0.0,0.0
01/06/2023,04:26:27,0.005,0.0,0.0,0.0
01/06/2023,04:27:26,0.005,0.0,0.0,0.0
01/06/2023,04:28:27,0.005,0.0,0.0,0.0
01/06/2023,04:29:26,0.005,0.0,0.0,0.0
01/06/2023,04:30:27,0.006,0.0,0.0,0.0
01/06/2023,04:31:27,0.006,0.0,0.0,0.0
01/06/2023,04:32:27,0.006,0.0,0.0,0.0
01/06/2023,04:33:27,0.006,0.0,0.0,0.0
01/06/2023,04:34:27,0.006,0.0,0.0,0.0
01/06/2023,04:35:27,0.006,0.0,0.0,0.0
01/06/2023,04:36:27,0.007,0.0,0.0,0.0
01/06/2023,04:37:27,0.007,0.0,0.001,0.001
01/06/2023,04:38:26,0.007,0.0,0.001,0.0
01/06/2023,04:39:26,0.008,0.0,0.001,0.0
01/06/2023,04:40:27,0.008,0.0,0.001,0.0
01/06/2023,04:41:26,0.009,0.0,0.001,0.0
01/06/2023,04:42:27,0.008,0.0,0.001,0.0
01/06/2023,04:43:27,0.008,0.0,0.001,0.0
01/06/2023,04:44:27,0.009,0.0,0.002,0.001
01/06/2023,04:45:27,0.009,0.0,0.002,0.0
01/06/2023,04:46:27,0.010,0.0,0.002,0.0
01/06/2023,04:47:27,0.010,0.0,0.002,0.0
01/06/2023,04:48:27,0.010,0.0,0.002,0.0
01/06/2023,04:49:26,0.010,0.0,0.002,0.0
01/06/2023,04:50:27,0.011,0.0,0.003,0.001
01/06/2023,04:51:27,0.011,0.0,0.003,0.0
01/06/2023,04:52:27,0.011,0.0,0.003,0.0
01/06/2023,04:53:27,0.011,0.0,0.003,0.0
01/06/2023,04:54:26,0.012,0.0,0.003,0.0
01/06/2023,04:55:26,0.013,0.0,0.004,0.001
01/06/2023,04:56:27,0.012,0.0,0.004,0.0
01/06/2023,04:57:27,0.012,0.0,0.004,0.0
01/06/2023,04:58:27,0.013,0.0,0.004,0.0
01/06/2023,04:59:27,0.012,0.0,0.004,0.0
01/06/2023,05:00:27,0.014,0.0,0.005,0.001
01/06/2023,05:01:27,0.014,0.0,0.005,0.0
01/06/2023,05:02:26,0.014,0.0,0.005,0.0
01/06/2023,05:03:27,0.015,0.0,0.005,0.0
01/06/2023,05:04:27,0.015,0.0,0.006,0.001
01/06/2023,05:05:27,0.016,0.0,0.006,0.0
01/06/2023,05:06:27,0.016,0.0,0.006,0.0
01/06/2023,05:07:26,0.017,0.0,0.006,0.0
01/06/2023,05:08:27,0.018,0.0,0.007,0.001
01/06/2023,05:09:27,0.017,0.0,0.007,0.0
01/06/2023,05:10:27,0.018,0.0,0.007,0.0
01/06/2023,05:11:27,0.019,0.0,0.008,0.001
01/06/2023,05:12:27,0.018,0.0,0.008,0.0
01/06/2023,05:13:27,0.019,0.0,0.008,0.0
01/06/2023,05:14:27,0.020,0.0,0.008,0.0
01/06/2023,05:15:27,0.020,0.0,0.009,0.001
01/06/2023,05:16:26,0.020,0.0,0.009,0.0
01/06/2023,05:17:26,0.020,0.0,0.009,0.0
01/06/2023,05:18:26,0.021,0.0,0.01,0.001
01/06/2023,05:19:27,0.022,0.0,0.01,0.0
01/06/2023,05:20:27,0.021,0.0,0.011,0.001
01/06/2023,05:21:27,0.023,0.0,0.011,0.0
01/06/2023,05:22:27,0.023,0.0,0.011,0.0
01/06/2023,05:23:27,0.023,0.0,0.012,0.001
01/06/2023,05:24:26,0.024,0.0,0.012,0.0
01/06/2023,05:25:28,0.026,0.0,0.012,0.0
01/06/2023,05:26:50,0.026,0.0,0.013,0.001
01/06/2023,05:28:27,0.029,0.0,0.014,0.001
01/06/2023,05:29:27,0.030,0.0,0.014,0.0
01/06/2023,05:30:27,0.031,0.0,0.015,0.001
01/06/2023,05:31:27,0.033,0.0,0.015,0.0
01/06/2023,05:32:26,0.033,0.0,0.016,0.001
01/06/2023,05:33:27,0.033,0.0,0.016,0.0
01/06/2023,05:34:28,0.033,0.0,0.017,0.001
01/06/2023,05:35:27,0.034,0.0,0.017,0.0
01/06/2023,05:36:26,0.036,0.0,0.018,0.001
01/06/2023,05:37:27,0.036,0.0,0.019,0.001
01/06/2023,05:38:27,0.035,0.0,0.019,0.0
01/06/2023,05:39:27,0.036,0.0,0.02,0.001
01/06/2023,05:40:27,0.036,0.0,0.02,0.0
01/06/2023,05:41:27,0.037,0.0,0.021,0.001
01/06/2023,05:42:27,0.038,0.0,0.022,0.001
01/06/2023,05:43:27,0.038,0.0,0.022,0.0
01/06/2023,05:44:27,0.039,0.0,0.023,0.001
01/06/2023,05:45:26,0.041,0.0,0.024,0.001
01/06/2023,05:46:26,0.041,0.0,0.024,0.0
01/06/2023,05:47:27,0.043,0.0,0.025,0.001
01/06/2023,05:48:27,0.043,0.0,0.026,0.001
01/06/2023,05:49:27,0.042,0.0,0.027,0.001
01/06/2023,05:50:27,0.043,0.0,0.027,0.0
01/06/2023,05:51:27,0.044,0.0,0.028,0.001
01/06/2023,05:52:27,0.045,0.0,0.029,0.001
01/06/2023,05:53:27,0.046,0.0,0.029,0.0
01/06/2023,05:54:27,0.047,0.0,0.03,0.001
01/06/2023,05:55:27,0.046,0.0,0.031,0.001
01/06/2023,05:56:27,0.048,0.0,0.032,0.001
01/06/2023,05:57:27,0.048,0.0,0.033,0.001
01/06/2023,05:58:27,0.049,0.0,0.033,0.0
01/06/2023,05:59:27,0.050,0.0,0.034,0.001
01/06/2023,06:00:27,0.052,0.0,0.035,0.001
01/06/2023,06:01:26,0.053,0.0,0.036,0.001
01/06/2023,06:02:27,0.054,0.0,0.037,0.001
01/06/2023,06:03:27,0.054,0.0,0.038,0.001
01/06/2023,06:04:27,0.054,0.0,0.039,0.001
01/06/2023,06:05:27,0.057,0.0,0.04,0.001
01/06/2023,06:06:26,0.057,0.0,0.041,0.001
01/06/2023,06:07:27,0.059,0.0,0.041,0.0
01/06/2023,06:08:27,0.062,0.0,0.043,0.002
01/06/2023,06:09:27,0.061,0.0,0.044,0.001
01/06/2023,06:10:27,0.063,0.0,0.045,0.001
01/06/2023,06:11:30,0.065,0.0,0.046,0.001
01/06/2023,06:12:28,0.069,0.0,0.047,0.001
01/06/2023,06:13:30,0.071,0.0,0.048,0.001
01/06/2023,06:14:28,0.073,0.0,0.049,0.001
01/06/2023,06:15:26,0.073,0.0,0.05,0.001
01/06/2023,06:16:27,0.074,0.0,0.052,0.002
01/06/2023,06:17:27,0.075,0.0,0.053,0.001
01/06/2023,06:18:27,0.076,0.0,0.054,0.001
01/06/2023,06:19:27,0.075,0.0,0.055,0.001
01/06/2023,06:20:27,0.078,0.0,0.057,0.002
01/06/2023,06:21:27,0.081,0.0,0.058,0.001
01/06/2023,06:22:27,0.081,0.0,0.059,0.001
01/06/2023,06:23:27,0.084,0.0,0.061,0.002
01/06/2023,06:24:27,0.085,0.0,0.062,0.001
01/06/2023,06:25:27,0.087,0.0,0.063,0.001
01/06/2023,06:26:27,0.090,0.0,0.065,0.002
01/06/2023,06:27:27,0.092,0.0,0.066,0.001
01/06/2023,06:28:27,0.096,0.0,0.068,0.002
01/06/2023,06:29:27,0.098,0.0,0.07,0.002
01/06/2023,06:30:27,0.098,0.0,0.071,0.001
01/06/2023,06:31:27,0.098,0.0,0.073,0.002
01/06/2023,06:32:27,0.098,0.0,0.075,0.002
01/06/2023,06:33:27,0.098,0.0,0.076,0.001
01/06/2023,06:34:27,0.097,0.0,0.078,0.002
01/06/2023,06:35:27,0.097,0.0,0.079,0.001
01/06/2023,06:36:27,0.098,0.0,0.081,0.002
01/06/2023,06:37:27,0.101,0.0,0.083,0.002
01/06/2023,06:38:27,0.105,0.0,0.084,0.001
01/06/2023,06:39:27,0.108,0.0,0.086,0.002
01/06/2023,06:40:27,0.111,0.0,0.088,0.002
01/06/2023,06:41:27,0.114,0.0,0.09,0.002
01/06/2023,06:42:27,0.120,0.0,0.092,0.002
01/06/2023,06:43:27,0.125,0.0,0.094,0.002
01/06/2023,06:44:27,0.129,0.0,0.096,0.002
01/06/2023,06:45:27,0.131,0.0,0.098,0.002
01/06/2023,06:46:27,0.133,0.0,0.1,0.002
01/06/2023,06:47:27,0.135,0.0,0.103,0.003
01/06/2023,06:48:27,0.138,0.0,0.105,0.002
01/06/2023,06:49:28,0.141,0.0,0.107,0.002
01/06/2023,06:50:27,0.145,0.0,0.11,0.003
01/06/2023,06:51:27,0.148,0.0,0.112,0.002
01/06/2023,06:52:27,0.149,0.0,0.115,0.003
01/06/2023,06:53:27,0.153,0.0,0.117,0.002
01/06/2023,06:54:27,0.161,0.0,0.12,0.003
01/06/2023,06:55:27,0.163,0.0,0.122,0.002
01/06/2023,06:56:27,0.174,0.0,0.125,0.003
01/06/2023,06:57:26,0.183,0.0,0.128,0.003
01/06/2023,06:58:27,0.190,0.0,0.131,0.003
01/06/2023,06:59:27,0.191,0.0,0.134,0.003
01/06/2023,07:00:27,0.189,0.0,0.138,0.004
01/06/2023,07:01:27,0.189,0.0,0.141,0.003
01/06/2023,07:02:27,0.190,0.0,0.144,0.003
01/06/2023,07:03:27,0.190,0.0,0.147,0.003
01/06/2023,07:04:27,0.190,0.0,0.15,0.003
01/06/2023,07:05:27,0.192,0.0,0.154,0.004
01/06/2023,07:06:28,0.188,0.0,0.157,0.003
01/06/2023,07:07:27,0.189,0.0,0.16,0.003
01/06/2023,07:08:27,0.190,0.0,0.163,0.003
01/06/2023,07:09:27,0.198,0.0,0.166,0.003
01/06/2023,07:10:27,0.201,0.0,0.17,0.004
01/06/2023,07:11:27,0.198,0.0,0.173,0.003
01/06/2023,07:12:27,0.200,0.0,0.176,0.003
01/06/2023,07:13:27,0.203,0.0,0.18,0.004
01/06/2023,07:14:27,0.210,0.0,0.183,0.003
01/06/2023,07:15:27,0.209,0.0,0.187,0.004
01/06/2023,07:16:27,0.215,0.0,0.19,0.003
01/06/2023,07:17:27,0.225,1.0,0.194,0.004
01/06/2023,07:18:27,0.227,1.0,0.197,0.003
01/06/2023,07:19:27,0.222,1.0,0.201,0.004
01/06/2023,07:20:27,0.226,1.0,0.205,0.004
01/06/2023,07:21:27,0.233,1.0,0.209,0.004
01/06/2023,07:22:27,0.237,1.0,0.213,0.004
01/06/2023,07:23:27,0.239,1.0,0.217,0.004
01/06/2023,07:24:27,0.241,1.0,0.221,0.004
01/06/2023,07:25:27,0.237,1.0,0.225,0.004
01/06/2023,07:26:27,0.239,1.0,0.229,0.004
01/06/2023,07:27:28,0.245,1.0,0.233,0.004
01/06/2023,07:28:27,0.246,1.0,0.237,0.004
01/06/2023,07:29:27,0.245,1.0,0.241,0.004
01/06/2023,07:30:28,0.246,1.0,0.245,0.004
01/06/2023,07:31:27,0.248,1.0,0.249,0.004
01/06/2023,07:32:27,0.249,1.0,0.253,0.004
01/06/2023,07:33:27,0.247,1.0,0.257,0.004
01/06/2023,07:34:27,0.248,1.0,0.261,0.004
01/06/2023,07:35:27,0.252,1.0,0.266,0.005
01/06/2023,07:36:28,0.256,1.0,0.27,0.004
01/06/2023,07:37:27,0.253,1.0,0.274,0.004
01/06/2023,07:38:27,0.250,1.0,0.278,0.004
01/06/2023,07:39:27,0.254,1.0,0.283,0.005
01/06/2023,07:40:28,0.252,1.0,0.287,0.004
01/06/2023,07:41:27,0.254,1.0,0.291,0.004
01/06/2023,07:42:27,0.260,1.0,0.295,0.004
01/06/2023,07:43:27,0.262,1.0,0.299,0.004
01/06/2023,07:44:27,0.259,1.0,0.304,0.005
01/06/2023,07:45:27,0.255,1.0,0.308,0.004
01/06/2023,07:46:27,0.251,1.0,0.312,0.004
01/06/2023,07:47:27,0.251,1.0,0.317,0.005
01/06/2023,07:48:27,0.252,1.0,0.321,0.004
01/06/2023,07:49:27,0.254,1.0,0.325,0.004
01/06/2023,07:50:27,0.263,1.0,0.329,0.004
01/06/2023,07:51:27,0.277,1.0,0.334,0.005
01/06/2023,07:52:28,0.283,1.0,0.339,0.005
01/06/2023,07:53:27,0.292,1.0,0.343,0.004
01/06/2023,07:54:27,0.290,1.0,0.348,0.005
01/06/2023,07:55:27,0.286,1.0,0.353,0.005
01/06/2023,07:56:27,0.287,1.0,0.358,0.005
01/06/2023,07:57:27,0.290,1.0,0.362,0.004
01/06/2023,07:58:27,0.289,1.0,0.367,0.005
01/06/2023,07:59:27,0.291,1.0,0.372,0.005
01/06/2023,08:00:27,0.299,1.0,0.377,0.005
01/06/2023,08:01:27,0.304,1.0,0.382,0.005
01/06/2023,08:02:27,0.300,1.0,0.387,0.005
01/06/2023,08:03:27,0.306,1.0,0.392,0.005
01/06/2023,08:04:27,0.302,1.0,0.397,0.005
01/06/2023,08:05:27,0.296,1.0,0.402,0.005
01/06/2023,08:06:27,0.296,1.0,0.407,0.005
01/06/2023,08:07:27,0.295,1.0,0.412,0.005
01/06/2023,08:08:27,0.295,1.0,0.417,0.005
01/06/2023,08:09:27,0.300,1.0,0.422,0.005
01/06/2023,08:10:27,0.307,1.0,0.427,0.005
01/06/2023,08:11:27,0.317,1.0,0.432,0.005
01/06/2023,08:12:27,0.325,1.0,0.437,0.005
01/06/2023,08:13:27,0.334,1.0,0.443,0.006
01/06/2023,08:14:27,0.335,1.0,0.449,0.006
01/06/2023,08:15:27,0.338,1.0,0.454,0.005
01/06/2023,08:16:27,0.341,1.0,0.46,0.006
01/06/2023,08:17:27,0.339,1.0,0.466,0.006
01/06/2023,08:18:27,0.344,1.0,0.471,0.005
01/06/2023,08:19:27,0.338,1.0,0.477,0.006
01/06/2023,08:20:27,0.327,1.0,0.483,0.006
01/06/2023,08:21:28,0.330,1.0,0.488,0.005
01/06/2023,08:22:27,0.340,1.0,0.493,0.005
01/06/2023,08:23:27,0.345,1.0,0.499,0.006
01/06/2023,08:24:28,0.343,1.0,0.505,0.006
01/06/2023,08:25:27,0.337,1.0,0.511,0.006
01/06/2023,08:26:26,0.334,1.0,0.516,0.005
01/06/2023,08:27:27,0.334,1.0,0.522,0.006
01/06/2023,08:28:28,0.334,1.0,0.527,0.005
01/06/2023,08:29:27,0.338,1.0,0.533,0.006
01/06/2023,08:30:27,0.338,1.0,0.539,0.006
01/06/2023,08:31:27,0.344,1.0,0.544,0.005
01/06/2023,08:32:27,0.354,1.0,0.55,0.006
01/06/2023,08:33:28,0.360,1.0,0.556,0.006
01/06/2023,08:34:27,0.359,1.0,0.562,0.006
01/06/2023,08:35:29,0.359,1.0,0.568,0.006
01/06/2023,08:36:27,0.367,1.0,0.574,0.006
01/06/2023,08:37:27,0.371,1.0,0.58,0.006
01/06/2023,08:38:28,0.373,1.0,0.587,0.007
01/06/2023,08:39:27,0.375,1.0,0.593,0.006
01/06/2023,08:40:27,0.377,1.0,0.599,0.006
01/06/2023,08:41:28,0.376,1.0,0.605,0.006
01/06/2023,08:42:27,0.381,1.0,0.611,0.006
01/06/2023,08:43:27,0.390,1.0,0.618,0.007
01/06/2023,08:44:27,0.397,1.0,0.625,0.007
01/06/2023,08:45:27,0.400,1.0,0.631,0.006
01/06/2023,08:46:28,0.398,1.0,0.638,0.007
01/06/2023,08:47:28,0.397,1.0,0.644,0.006
01/06/2023,08:48:27,0.398,1.0,0.651,0.007
01/06/2023,08:49:27,0.402,1.0,0.658,0.007
01/06/2023,08:50:27,0.407,1.0,0.664,0.006
01/06/2023,08:51:27,0.412,1.0,0.671,0.007
01/06/2023,08:52:28,0.416,1.0,0.678,0.007
01/06/2023,08:53:27,0.414,1.0,0.685,0.007
01/06/2023,08:54:28,0.412,1.0,0.692,0.007
01/06/2023,08:55:27,0.416,1.0,0.699,0.007
01/06/2023,08:56:27,0.427,1.0,0.706,0.007
01/06/2023,08:57:28,0.435,1.0,0.713,0.007
01/06/2023,08:58:27,0.434,1.0,0.72,0.007
01/06/2023,08:59:27,0.439,1.0,0.727,0.007
01/06/2023,09:00:27,0.446,1.0,0.735,0.008
01/06/2023,09:01:27,0.452,1.0,0.742,0.007
01/06/2023,09:02:28,0.456,1.0,0.75,0.008
01/06/2023,09:03:26,0.465,1.0,0.758,0.008
01/06/2023,09:04:27,0.475,1.0,0.765,0.007
01/06/2023,09:05:27,0.480,1.0,0.774,0.009
01/06/2023,09:06:27,0.479,1.0,0.782,0.008
01/06/2023,09:07:27,0.484,1.0,0.79,0.008
01/06/2023,09:08:27,0.491,1.0,0.797,0.007
01/06/2023,09:09:27,0.493,1.0,0.806,0.009
01/06/2023,09:10:28,0.487,1.0,0.814,0.008
01/06/2023,09:11:27,0.489,1.0,0.822,0.008
01/06/2023,09:12:27,0.496,1.0,0.83,0.008
01/06/2023,09:13:27,0.509,1.0,0.839,0.009
01/06/2023,09:14:27,0.506,1.0,0.847,0.008
01/06/2023,09:15:28,0.503,1.0,0.856,0.009
01/06/2023,09:16:28,0.505,1.0,0.864,0.008
01/06/2023,09:17:28,0.519,1.0,0.873,0.009
01/06/2023,09:18:27,0.525,1.0,0.881,0.008
01/06/2023,09:19:28,0.534,1.0,0.89,0.009
01/06/2023,09:20:27,0.552,1.0,0.899,0.009
01/06/2023,09:21:28,0.574,1.0,0.909,0.01
01/06/2023,09:22:27,0.591,1.0,0.918,0.009
01/06/2023,09:23:27,0.582,1.0,0.928,0.01
01/06/2023,09:24:27,0.561,1.0,0.938,0.01
01/06/2023,09:25:28,0.545,1.0,0.947,0.009
01/06/2023,09:26:27,0.534,1.0,0.956,0.009
01/06/2023,09:27:27,0.530,1.0,0.965,0.009
01/06/2023,09:28:28,0.529,1.0,0.974,0.009
01/06/2023,09:29:27,0.527,1.0,0.982,0.008
01/06/2023,09:30:28,0.530,1.0,0.991,0.009
01/06/2023,09:31:27,0.536,1.0,1.0,0.009
01/06/2023,09:32:27,0.543,1.0,1.009,0.009
01/06/2023,09:33:28,0.559,1.0,1.018,0.009
01/06/2023,09:34:28,0.580,1.0,1.028,0.01
01/06/2023,09:35:28,0.585,1.0,1.037,0.009
01/06/2023,09:36:27,0.601,1.0,1.047,0.01
01/06/2023,09:37:27,0.609,1.0,1.057,0.01
01/06/2023,09:38:28,0.624,1.0,1.068,0.011
01/06/2023,09:39:27,0.637,1.0,1.078,0.01
01/06/2023,09:40:27,0.640,1.0,1.088,0.01
01/06/2023,09:41:27,0.642,1.0,1.099,0.011
01/06/2023,09:42:27,0.641,1.0,1.11,0.011
01/06/2023,09:43:27,0.658,2.0,1.121,0.011
01/06/2023,09:44:28,0.660,2.0,1.132,0.011
01/06/2023,09:45:27,0.649,1.0,1.143,0.011
01/06/2023,09:46:28,0.657,2.0,1.154,0.011
01/06/2023,09:47:28,0.654,2.0,1.165,0.011
01/06/2023,09:48:27,0.665,2.0,1.175,0.01
01/06/2023,09:49:27,0.672,2.0,1.187,0.012
01/06/2023,09:50:27,0.670,2.0,1.198,0.011
01/06/2023,09:51:27,0.684,2.0,1.209,0.011
01/06/2023,09:52:28,0.697,2.0,1.221,0.012
01/06/2023,09:53:28,0.713,2.0,1.233,0.012
01/06/2023,09:54:27,0.736,2.0,1.245,0.012
01/06/2023,09:55:28,0.730,2.0,1.257,0.012
01/06/2023,09:56:27,0.707,2.0,1.269,0.012
01/06/2023,09:57:28,0.697,2.0,1.281,0.012
01/06/2023,09:58:27,0.694,2.0,1.292,0.011
01/06/2023,09:59:28,0.699,2.0,1.304,0.012